Flag for Germany Weather past 2 weeks in Bernau bei Berlin, Brandenburg, Germany

Now
69 °F

Partly sunny.


Feels Like: 69 °F
Forecast: 57 / 72 °F
Wind: 5 mph from East

Location: Berlin-Tegel

Current Time: Sep 15, 2014 at 11:47:40 AM

Latest Report: Sep 15, 2014 at 11:00 AM


Visibility: 11 mi

Pressure: 30.11 "Hg

Humidity: 57%

Dew point: 54 °F

Location of Bernau bei BerlinLocation

Historic Weather in Bernau bei Berlin — Graph

°F

Bernau bei Berlin temperature yesterday

Maximum temperature yesterday: 69 °F (at 6:00 PM)
Minimum temperature yesterday: 60 °F (at 12:00 AM)
Average temperature yesterday: 64 °F

Past Weeks' High & Low Weather Summary

 TemperatureHumidityPressure
High81 °F (Sep 6, 3:00 PM)96% (Sep 1, 9:00 AM)30.31 "Hg (Sep 1, 9:00 AM)
Low52 °F (Sep 9, 6:00 AM)35% (Sep 6, 4:00 PM)29.87 "Hg (Aug 31, 5:00 PM)
Average63 °F75%30.06 "Hg
* Reported Aug 31 10:00 AM — Sep 15 10:00 AM, Bernau bei Berlin, Weather by CustomWeather, © 2014

Note: Actual official high and low records may vary slightly from our data, if they occured in-between our weather recording intervals... More about our weather records

Advertising

Bernau bei Berlin weather history for previous 24 hours

 ConditionsComfort  
Time TempWeatherWind HumidityBarometerVisibility
10:00 AM
Sep 15
66 °FPartly sunny.5 mph64%30.12 "Hg11 mi
9:00 AM64 °FPartly sunny.2 mph69%30.11 "Hg8 mi
8:00 AM61 °FPartly sunny.2 mph76%30.11 "Hg8 mi
7:00 AM61 °FScattered clouds.3 mph78%30.10 "Hg8 mi
6:00 AM62 °FOvercast.3 mph75%30.09 "Hg16 mi
5:00 AM64 °FOvercast.2 mph73%30.09 "Hg16 mi
4:00 AM65 °FOvercast.2 mph72%30.09 "Hg16 mi
3:00 AM65 °FOvercast.2 mph70%30.09 "Hg16 mi
2:00 AM67 °FOvercast.3 mph68%30.09 "Hg16 mi
1:00 AM67 °FOvercast.2 mph66%30.09 "Hg10 mi
12:00 AM67 °FOvercast.3 mph68%30.08 "Hg10 mi
11:00 PM
Sep 14
67 °FOvercast.2 mph68%30.08 "Hg10 mi
10:00 PM67 °FOvercast.2 mph74%30.08 "Hg9 mi
9:00 PM67 °FOvercast.1 mph90%30.08 "Hg7 mi
8:00 PM67 °FOvercast.2 mph88%30.08 "Hg6 mi
7:00 PM68 °FOvercast.2 mph84%30.07 "Hg7 mi
6:00 PM69 °FOvercast.2 mph81%30.08 "Hg9 mi
5:00 PM69 °FOvercast.2 mph80%30.08 "Hg8 mi
4:00 PM68 °FOvercast.3 mph79%30.09 "Hg8 mi
3:00 PM67 °FOvercast.5 mph80%30.10 "Hg11 mi
2:00 PM67 °FOvercast.3 mph83%30.11 "Hg9 mi
1:00 PM65 °FOvercast.2 mph87%30.11 "Hg11 mi
12:00 PM64 °FLow clouds.3 mph90%30.12 "Hg9 mi
11:00 AM62 °FLow clouds.2 mph95%30.13 "Hg4 mi
Weather by CustomWeather, © 2014

See weather overviewHow to use our weather pages